EHI
0 0 0 0 0 0 0 0 0 0 0 0 0 0 0 0 0 0 0 0 0 0 0 0 0 0 0 0 0 0 0 0 0 0 0 0 0 0 0 0 0 0 0 0
0 0 0 0 0 0 0 0 0 0 0 0 0 0 0 0 0 0 0 0 0 0 0 0 0 0 0 0 0 0 0 0 0 0 0 0 0 0 0 0 0 0 0 0
0 0 0 0 0 0 0 0 0 0 0 0 0 0 0 0 0 0 0 0 0 0 0 0 0 0 0 0 0 0 0 0 0 0 0 0 0 0 0 0 0 0 0 0
0 0 0 0 0 0 0 0 0 0 0 0 0 0 0 0 0 0 0 0 0 0 0 0 0 0 0 0 0 0 0 0 0 0 0 0 0 0 0 0 0 0 0 0
0 0 0 0 0 0 0 0 0 0 0 0 0 0 0 0 0 0 0 0 0 0 0 0 0 0 0 0 0 0 0 0 0 0 0 0 0 0 0 0 0 0 0 0
0 0 0 0 0 0 0 0 0 0 0 0 0 0 0 0 0 0 0 0 0 0 0 0 0 0 0 0 0 0 0 0 0 0 0 0 0 0 0 0 0 0 0 0
0 0 0 0 0 0 0 0 0 0 0 0 0 0 0 0 0 0 0 0 0 0 0 0 0 0 0 0 0 0 0 0 0 0 0 0 0 0 0 0 0 0 0 0
0 0 0 0 0 0 0 0 0 0 0 0 0 0 0 0 0 0 0 0 0 0 0 0 0 0 0 0 0 0 0 0 0 0 0 0 0 0 0 0 0 0 0 0
0 0 0 0 0 0 0 0 0 0 0 0 0 0 0 0 0 0 0 0 0 0 0 0 0 0 0 0 0 0 0 0 0 0 0 0 0 0 0 0 0 0 0 0
0 0 0 0 0 0 0 0 0 0 0 0 0 0 0 0 0 0 0 0 0 0 0 0 0 0 0 0 0 0 0 0 0 0 0 0 0 0 0 0 0 0 0 0
0 0 0 0 0 0 0 0 0 0 0 0 0 0 0 0 0 0 0 0 0 0 0 0 0 0 0 0 0 0 0 0 0 0 0 0 0 0 0 0 0 0 0 0
0 0 0 0 0 0 0 0 0 0 0 0 0 0 0 0 0 0 0 0 0 0 0 0 0 0 0 0 0 0 0 0 0 0 0 0 0 0 0 0 0 0 0 0
0 0 0 0 0 0 0 0 0 0 0 0 0 0 0 0 0 0 0 0 0 0 0 0 0 0 0 0 0 0 0 0 0 0 0 0 0 0 0 0 0 0 0 0
0 0 0 0 0 0 0 0 0 0 0 0 0 0 0 0 0 0 0 0 0 0 0 0 0 0 0 0 0 0 0 0 0 0 0 0 0 0 0 0 0 0 0 0
0 0 0 0 0 0 0 0 0 0 0 0 0 0 0 0 0 0 0 0 0 0 0 0 0 0 0 0 0 0 0 0 0 0 0 0 0 0 0 0 0 0 0 0
0 0 0 0 0 0 0 0 0 0 0 0 0 0 0 0 0 0 0 0 0 0 0 0 0 0 0 0 0 0 0 0 0 0 0 0 0 0 0 0 0 0 0 0
0 0 0 0 0 0 0 0 0 0 0 0 0 0 0 0 0 0 0 0 0 0 0 0 0 0 0 0 0 0 0 0 0 0 0 0 0 0 0 0 0 0 0 0
0 0 0 0 0 0 0 0 0 0 0 0 0 0 0 0 0 0 0 0 0 0 0 0 0 0 0 0 0 0 0 0 0 0 0 0 0 0 0 0 0 0 0 0
0 0 0 0 0 0 0 0 0 0 0 0 0 0 0 0 0 0 0 0 0 0 0 0 0 0 0 0 0 0 0 0 0 0 0 0 0 0 0 0 0 0 0 0
0 0 0 0 0 0 0 0 0 0 0 0 0 0 0 0 0 0 0 0 0 0 0 0 0 0 0 0 0 0 0 0 0 0 0 0 0 0 0 0 0 0 0 0
0 0 0 0 0 0 0 0 0 0 0 0 0 0 0 0 0 0 0 0 0 0 0 0 0 0 0 0 0 0 0 0 0 0 0 0 0 0 0 0 0 0 0 0
0 0 0 0 0 0 0 0 0 0 0 0 0 0 0 0 0 0 0 0 0 0 0 0 0 0 0 0 0 0 0 0 0 0 0 0 0 0 0 0 0 0 0 0
0 0 0 0 0 0 0 0 0 0 0 0 0 0 0 0 0 0 0 0 0 0 0 0 0 0 0 0 0 0 0 0 0 0 0 0 0 0 0 0 0 0 0 0
0 0 0 0 0 0 0 0 0 0 0 0 0 0 0 0 0 0 0 0 0 0 0 0 0 0 0 0 0 0 0 0 0 0 0 0 0 0 0 0 0 0 0 0
0 0 0 0 0 0 0 0 0 0 0 0 0 0 0 0 0 0 0 0 0 0 0 0 0 0 0 0 0 0 0 0 0 0 0 0 0 0 0 0 0 0 0 0
0 0 0 0 0 0 0 0 0 0 0 0 0 0 0 0 0 0 0 0 0 0 0 0 0 0 0 0 0 0 0 0 0 0 0 0 0 0 0 0 0 0 0 0
Wind_Speed
3 5 2 3 3 4 4 5 4 1 1 4 4 2 2 1 2 2 1 2 2 1 0 1 2 3 3 3 3 2 2 2 2 2 1 1 1 2 2 2 3 3 3 3
5 1 2 4 3 4 5 5 3 3 3 4 4 3 1 1 1 2 3 3 3 1 1 2 2 3 3 2 1 1 1 2 2 1 1 1 0 1 1 2 3 3 3 3
2 2 3 6 4 3 2 4 5 4 3 4 3 3 2 1 1 1 1 2 2 3 3 2 2 2 2 1 1 1 1 1 1 2 2 2 2 2 3 3 3 4 4 3
1 2 4 5 3 4 1 3 5 5 4 2 2 0 3 1 1 1 1 2 2 2 2 2 2 2 1 0 1 2 2 2 2 2 2 2 1 1 1 2 2 4 4 4
1 2 5 4 3 5 3 4 5 4 4 2 2 2 5 0 2 4 4 3 3 3 3 3 3 2 1 1 2 2 3 3 3 3 3 2 1 0 1 2 3 4 4 4
1 0 2 3 2 5 6 6 6 5 4 1 2 3 5 5 6 5 4 4 4 4 3 3 2 2 2 2 2 3 3 3 3 3 3 2 1 1 2 3 3 3 3 3
3 2 1 3 5 3 5 6 4 4 3 3 1 2 8 5 5 7 8 7 5 4 4 4 3 3 2 2 2 3 3 2 2 3 2 2 1 1 1 2 2 3 3 3
2 2 2 2 5 6 4 6 7 5 4 3 1 5 7 3 2 4 5 5 5 4 4 4 4 3 3 2 2 3 3 2 2 2 2 2 1 1 1 1 1 2 2 3
4 3 2 2 3 8 6 3 5 6 2 0 4 5 6 1 2 4 5 5 6 5 5 4 4 3 3 3 2 2 3 2 1 1 1 2 2 1 1 2 2 2 3 3
6 2 1 2 5 3 5 7 5 5 4 2 4 4 6 6 7 7 7 8 6 5 5 5 4 3 3 2 2 2 2 2 1 1 1 1 1 1 1 2 3 3 3 4
3 3 0 1 4 6 4 4 4 4 4 5 3 8 7 8 10 12 11 9 9 8 7 6 4 3 3 3 2 2 2 2 1 1 1 2 2 2 2 2 3 3 3 4
3 5 1 4 3 4 5 7 7 5 4 4 3 9 3 5 7 9 10 9 8 7 6 5 5 4 3 3 2 2 2 2 1 1 1 1 2 2 2 3 3 3 3 4
5 5 3 4 4 0 2 4 4 5 5 5 4 8 3 0 4 7 8 9 7 7 6 5 4 4 4 3 3 2 2 1 1 2 2 2 2 2 2 2 3 3 3 3
5 4 6 8 7 5 4 4 5 6 5 5 8 8 6 4 6 7 8 9 8 7 7 6 5 5 4 4 3 3 2 1 2 2 2 1 1 1 2 2 2 3 3 3
4 3 4 5 4 3 5 6 7 7 8 9 9 9 10 9 9 9 8 9 9 8 8 8 7 5 5 4 3 3 2 2 2 2 1 0 1 1 1 2 2 3 3 3
3 3 1 2 1 3 4 6 8 8 6 7 5 9 8 4 5 7 9 11 11 10 10 9 8 7 6 6 5 4 3 2 2 2 1 0 1 1 2 2 2 3 3 3
3 4 3 3 3 2 6 8 8 6 7 9 10 11 4 5 10 12 13 13 13 12 10 10 10 8 7 7 6 5 4 3 3 2 1 0 0 1 1 2 2 2 3 3
7 5 3 1 1 5 9 3 5 6 6 8 7 6 7 8 7 6 8 12 12 11 10 10 9 8 6 5 5 4 4 3 3 2 1 1 1 0 1 1 2 2 2 2
4 7 5 3 2 7 9 4 5 5 6 6 7 5 4 5 4 2 7 10 11 11 10 9 9 7 6 6 6 5 4 3 3 3 2 2 1 1 1 1 2 2 2 3
4 4 6 4 3 6 9 3 1 3 5 4 6 6 7 8 4 6 7 9 8 7 7 7 7 6 6 5 6 6 5 4 4 4 3 2 2 2 2 2 2 2 2 3
3 3 4 5 5 9 8 2 3 4 8 3 6 8 11 9 7 4 6 7 8 8 7 8 8 7 7 6 7 6 5 5 5 4 3 2 2 3 3 2 2 2 2 3
7 6 5 5 5 10 3 4 7 8 3 2 4 6 8 6 2 3 6 7 8 8 7 8 8 6 5 6 7 6 6 5 4 3 3 3 3 2 1 1 2 2 2 2
6 8 7 9 8 5 3 5 4 1 2 2 4 4 7 5 4 4 5 6 7 8 8 7 7 6 5 5 7 7 6 5 4 4 3 3 3 2 2 2 2 2 2 2
4 3 3 4 7 5 4 4 2 2 2 2 3 4 6 5 5 5 5 5 6 6 7 6 7 7 6 5 6 6 5 5 5 5 4 3 3 3 2 2 2 2 3 3
4 4 3 4 6 5 4 3 2 0 0 1 2 2 5 6 5 5 6 6 6 6 5 6 7 7 7 6 6 5 5 5 5 4 4 3 3 3 3 3 3 4 5 5
5 7 6 7 6 5 5 3 1 1 1 2 2 2 2 4 5 5 5 5 6 6 6 6 6 6 6 6 6 5 5 6 6 4 4 3 3 3 3 3 4 6 7 10
Wind_Direction
37 72 108 171 164 154 131 116 102 67 60 86 90 71 6 43 105 113 129 153 160 187 339 71 88 97 102 90 93 98 97 84 80 67 66 56 23 356 355 356 357 360 2 5
47 48 192 141 145 114 111 106 100 68 62 103 96 50 3 46 164 173 174 181 180 148 63 60 76 80 89 98 111 116 115 103 91 85 105 110 101 340 327 335 352 358 356 355
142 223 154 131 128 113 111 151 154 139 75 50 89 14 350 343 48 86 136 170 173 166 159 138 105 86 84 80 126 141 135 115 100 94 79 54 38 16 9 359 351 343 341 339
212 231 143 128 151 144 172 176 141 127 102 18 80 116 292 282 323 283 211 166 179 174 155 147 131 115 123 130 87 93 103 92 81 91 88 88 84 24 313 317 322 330 344 343
245 171 146 153 190 154 150 106 102 103 106 64 30 114 283 327 235 237 223 198 188 175 164 158 159 163 134 97 95 91 90 73 61 73 85 87 69 346 324 335 340 340 340 343
256 226 157 151 106 121 120 80 63 52 66 24 242 154 267 226 214 211 206 197 184 169 151 143 136 116 93 84 86 88 90 67 56 67 68 79 67 16 5 350 343 339 335 335
23 2 18 117 92 61 93 98 60 21 15 259 229 187 248 241 213 192 189 188 178 163 149 143 136 127 118 111 101 96 96 71 55 64 55 50 48 47 21 343 337 340 339 331
114 286 235 166 150 156 160 138 151 174 207 268 284 234 254 265 217 169 159 160 156 156 156 158 159 152 147 136 118 109 107 89 61 62 41 33 36 45 13 358 345 328 311 304
164 237 270 168 137 134 138 161 155 127 138 227 271 280 297 127 146 152 152 157 171 170 163 160 153 151 152 149 146 143 130 107 61 53 50 28 20 26 11 353 350 335 326 328
156 180 252 144 97 54 142 144 111 121 148 232 283 266 246 218 205 189 182 183 184 174 167 163 159 158 155 151 142 123 129 137 131 72 66 58 17 6 9 14 359 346 340 343
145 145 327 116 177 176 127 120 114 117 149 156 245 268 228 210 197 192 193 188 182 180 177 173 168 165 155 136 123 116 113 109 90 72 59 43 17 14 23 15 355 347 346 350
148 122 193 246 244 175 166 167 150 153 200 175 183 266 279 219 200 188 186 183 180 178 175 168 162 155 148 142 135 125 123 121 127 104 78 52 30 32 27 4 347 349 349 348
141 119 84 353 344 150 173 169 159 130 123 155 176 262 305 237 185 184 178 176 174 170 166 160 158 162 166 165 158 143 136 140 127 97 80 55 35 28 9 352 347 351 351 350
120 128 165 194 215 199 200 184 161 140 159 195 217 244 274 233 200 192 182 175 170 170 170 169 173 177 178 175 168 158 156 154 132 104 87 62 7 342 335 344 351 349 350 352
119 170 215 233 232 200 212 205 184 189 193 194 224 225 240 220 205 193 178 167 167 174 179 180 180 181 179 176 174 168 170 167 141 118 104 1 317 341 354 356 350 350 353 351
112 158 170 287 248 222 237 232 204 211 207 214 234 253 243 199 160 170 176 175 181 187 187 184 181 179 183 183 181 175 179 180 152 146 168 203 28 16 0 347 349 355 350 344
136 135 124 270 308 11 266 231 202 206 203 186 212 235 191 175 189 191 186 185 190 190 187 185 185 186 187 187 180 179 182 167 156 161 170 168 109 17 338 341 359 347 337 343
142 129 134 171 36 245 246 246 199 206 229 212 224 226 193 199 196 191 185 186 192 188 186 187 185 183 183 178 173 166 158 160 161 167 181 199 184 291 328 347 333 319 314 323
150 138 128 136 213 276 292 265 180 184 254 218 212 217 170 127 95 252 203 192 194 189 184 183 180 173 168 170 167 153 157 162 165 183 199 210 199 215 278 303 298 295 302 310
72 113 124 140 178 241 253 258 190 130 275 241 187 180 152 132 152 241 200 184 181 170 165 162 157 152 161 171 159 154 167 173 194 203 206 208 205 210 235 257 273 277 281 290
106 103 146 167 208 257 255 258 127 167 241 226 178 172 164 180 199 203 159 168 166 160 158 155 155 164 174 168 159 167 178 199 206 196 192 205 217 223 229 242 257 269 288 308
175 165 181 155 191 251 246 152 181 217 241 183 174 173 177 189 164 140 153 157 155 155 155 157 161 170 170 165 164 176 199 206 190 180 189 211 225 238 231 231 271 278 286 303
196 189 185 188 211 245 232 222 243 201 213 212 178 176 166 165 171 161 157 160 163 164 163 162 164 165 171 177 175 186 207 191 177 179 201 218 226 238 232 229 254 277 278 281
250 167 164 243 266 267 268 272 278 225 222 222 180 165 159 166 170 163 162 164 166 168 168 163 159 168 186 194 197 201 198 182 175 190 208 216 220 239 249 249 241 245 257 267
223 168 184 250 273 302 302 269 264 300 69 97 105 150 163 157 169 173 173 176 175 172 171 169 175 184 196 197 205 208 193 176 183 198 210 218 223 229 242 250 244 241 242 238
202 182 183 225 227 205 251 271 243 174 206 179 135 113 138 159 172 169 177 181 175 174 171 175 184 191 198 197 208 210 197 183 183 200 215 219 225 232 237 253 280 265 256 272